Terminal Aerodrome Forecast
Issued by NWS Quad Cities IA IL

Home | Current Version | Previous Version | Text Only | Print | Product List | Glossary On
Versions: 1 2 3 4 5 6 7 8 9 10 11 12 13 14 15 16 17 18 19 20 21 22 23 24
000
FTUS43 KDVN 140308 AAA
TAFMLI
TAF AMD
KMLI 140308Z 1403/1424 06008KT P6SM SCT015 BKN150
      TEMPO 1403/1406 BKN015
     FM141400 34006KT P6SM OVC035=

USA.gov is the U.S. government's official web portal to all federal, state and local government web resources and services.